FM-6

Last updated on Wed Sep 09 2026 00:03:00 GMT+0000 (Coordinated Universal Time)

1 39360U 13058A 26251.50545821 -.00000036 00000+0 00000+0 0 9992 2 39360 0.0188 226.2749 0000152 20.4030 166.4948 1.00269083 46905
UTC large
Height (km)
Speed (km/s)
/
Latitude / Longitude
Inclination (degrees)
Orbital Period (minutes)
Azimuth
Elevation
Range (km)
Doppler Factor

Next 0 passes for location: London (51.5072 / 0.1276)

No passes found over London.
FM-6